TimeEST,TemperatureF,Dew PointF,Humidity,Sea Level PressureIn,VisibilityMPH,Wind Direction,Wind SpeedMPH,Gust SpeedMPH,PrecipitationIn,Events,Conditions,WindDirDegrees,DateUTC
12:54 AM,30.9,26.1,82,30.25,10.0,Calm,Calm,-,N/A,,Overcast,0,2012-12-07 05:54:00
1:54 AM,33.1,27.0,78,30.24,10.0,Calm,Calm,-,N/A,,Overcast,0,2012-12-07 06:54:00
2:54 AM,32.0,28.0,85,30.23,10.0,Calm,Calm,-,N/A,,Overcast,0,2012-12-07 07:54:00
3:54 AM,33.1,28.9,85,30.20,10.0,Calm,Calm,-,N/A,,Mostly Cloudy,0,2012-12-07 08:54:00
4:54 AM,34.0,30.0,85,30.19,10.0,Calm,Calm,-,N/A,,Overcast,0,2012-12-07 09:54:00
5:54 AM,35.1,30.9,85,30.19,10.0,Calm,Calm,-,N/A,,Overcast,0,2012-12-07 10:54:00
6:54 AM,37.0,30.9,79,30.19,10.0,Calm,Calm,-,N/A,,Overcast,0,2012-12-07 11:54:00
7:35 AM,37.4,33.8,87,30.18,3.0,Calm,Calm,-,0.00,Rain,Light Rain,0,2012-12-07 12:35:00
7:47 AM,37.4,33.8,87,30.18,8.0,Calm,Calm,-,0.01,Rain,Light Rain,0,2012-12-07 12:47:00
7:54 AM,37.9,34.0,86,30.18,10.0,Calm,Calm,-,0.01,,Overcast,0,2012-12-07 12:54:00
8:54 AM,39.0,36.0,89,30.18,10.0,Calm,Calm,-,N/A,,Overcast,0,2012-12-07 13:54:00
9:54 AM,39.9,37.0,89,30.19,10.0,SW,3.5,-,0.00,,Overcast,230,2012-12-07 14:54:00
10:54 AM,42.1,37.0,82,30.16,10.0,SSE,4.6,-,N/A,,Overcast,160,2012-12-07 15:54:00
11:12 AM,42.8,37.4,81,30.14,10.0,SSE,3.5,-,N/A,,Overcast,160,2012-12-07 16:12:00
11:54 AM,43.0,37.9,82,30.12,10.0,South,5.8,-,N/A,,Overcast,190,2012-12-07 16:54:00
12:54 PM,45.0,39.0,80,30.09,10.0,SSW,4.6,-,N/A,,Overcast,200,2012-12-07 17:54:00
1:54 PM,46.0,39.0,76,30.07,10.0,Calm,Calm,-,N/A,,Overcast,0,2012-12-07 18:54:00
2:54 PM,46.9,39.9,77,30.06,10.0,ESE,3.5,-,N/A,,Overcast,120,2012-12-07 19:54:00
3:54 PM,48.0,39.9,74,30.06,10.0,Calm,Calm,-,N/A,,Overcast,0,2012-12-07 20:54:00
4:54 PM,46.9,41.0,80,30.05,10.0,ENE,4.6,-,N/A,,Overcast,60,2012-12-07 21:54:00
5:54 PM,46.9,42.1,83,30.06,10.0,East,4.6,-,N/A,,Overcast,90,2012-12-07 22:54:00
6:54 PM,46.9,42.1,83,30.05,10.0,ENE,4.6,-,N/A,,Overcast,70,2012-12-07 23:54:00
7:54 PM,46.4,44.6,93,30.04,10.0,East,3.5,-,N/A,,Overcast,90,2012-12-08 00:54:00
8:54 PM,48.0,44.1,86,30.03,7.0,ENE,4.6,-,0.00,Rain,Light Rain,70,2012-12-08 01:54:00
9:48 PM,46.4,44.6,93,30.01,4.0,East,3.5,-,0.00,Rain,Light Rain,100,2012-12-08 02:48:00
9:54 PM,46.9,45.0,93,30.01,6.0,ESE,3.5,-,0.00,,Overcast,110,2012-12-08 02:54:00
10:54 PM,46.9,46.0,97,29.99,6.0,East,4.6,-,0.01,,Overcast,100,2012-12-08 03:54:00
11:54 PM,46.9,46.0,97,29.97,4.0,East,3.5,-,0.00,,Overcast,100,2012-12-08 04:54:00